View from above orbital plane
|
View from above satellite
|
Ground track
|
The orbit data is extracted from the following two-line orbital elements,
1 13067U 82013A 21022.76283653 .00000691 00000-0 29903-4 0 9991
2 13067 81.1851 38.3748 0004423 69.9070 290.2637 15.21126804127391
Epoch (UTC): | 22 January 2021 18:18:29 |
Eccentricity: | 0.0004423 |
inclination: | 81.1851° |
perigee height: | 499 km |
apogee height: | 505 km |
right ascension of ascending node: | 38.3748° |
argument of perigee: | 69.9070° |
revolutions per day: | 15.21126804 |
mean anomaly at epoch: | 290.2637° |
orbit number at epoch: | 12739 |
The dashed part of the orbit path shows where the satellite is in the earth's shadow,
|
|